Station SFXC1 - Rush Ranch, San Francisco Bay Reserve, CA Image indicating link to RSS feed of recent meteorological observations for station SFXC1


Conditions at SFXC1 as of
(11:45 am PDT)
1845 GMT on 07/14/2024:
     

Click on the graph icon in the table below to see a time series plot of the last five days of that observation.

5-day plot - Wind Direction Wind Direction (WDIR): W ( 270 deg true )
5-day plot - Wind Speed Wind Speed (WSPD): 12.0 kts
5-day plot - Atmospheric Pressure Atmospheric Pressure (PRES):30.00 in
5-day plot - Air Temperature Air Temperature (ATMP): 73.6 °F
5-day plot - Dew Point Dew Point (DEWP): 56.3 °F
5-day plot -  Wind Speed, Wind Gust and Atmospheric Pressure Combined plot of Wind Speed, Gust, and Air Pressure
Previous observations
TIME
(PDT)
5-day plot - Wind Direction
WDIR
 
5-day plot - Wind Speed
WSPD
kts
5-day plot - Wind Gust
GST
kts
5-day plot - Wave Height
WVHT
ft
5-day plot - Dominant Wave Period
DPD
sec
5-day plot - Average Wave Period
APD
sec
5-day plot - Mean Wave Direction
MWD
 
5-day plot - Atmospheric Pressure
PRES
in
5-day plot - Pressure Tendency
PTDY
in
5-day plot - Air Temperature
ATMP
°F
5-day plot - Water Temperature
WTMP
°F
5-day plot - Dew Point
DEWP
°F
5-day plot - Salinity
SAL
psu
5-day plot - Visibility
VIS
nmi
5-day plot - Tide (above MLLW)
TIDE
ft
2024-07-14 11:30 am W 12.0-----30.00- 72.3- 56.5---
2024-07-14 11:15 am W 12.0-----30.00- 71.1- 56.3---
2024-07-14 11:00 am W 12.0-----30.00+0.00 70.2- 55.9---
2024-07-14 10:45 am W 9.9-----30.00- 69.8- 56.8---
2024-07-14 10:30 am W 11.1-----30.00- 68.4- 55.9---
2024-07-14 10:15 am W 9.9-----30.00- 67.6- 56.1---
2024-07-14 10:00 am W 8.0-----30.03- 64.6- 55.6---
2024-07-14 09:45 am W 13.0-----30.00- 64.2- 55.6---
2024-07-14 09:30 am W 12.0-----30.00- 63.3- 55.4---
2024-07-14 08:45 am W 14.0-----30.00- 61.0- 55.2---
2024-07-14 08:30 am W 13.0-----30.00- 59.4- 54.7---
2024-07-14 08:15 am W 13.0-----30.00- 59.2- 54.5---
2024-07-14 08:00 am W 13.0-----30.00- 59.7- 54.7---
2024-07-14 07:45 am W 12.0-----30.00- 59.4- 54.7---
2024-07-14 07:30 am W 13.0-----30.00- 59.4- 54.7---
2024-07-14 07:15 am W 13.0-----30.00- 58.8- 54.3---
2024-07-14 02:45 am--------- 61.3-----
2024-07-13 03:45 pmWSW 15.9-----29.85- 78.4- 58.1---
2024-07-13 03:30 pm--------- 79.9- 59.5---
2024-07-13 02:45 pm W 15.9-----29.83- 82.0- 58.5---
2024-07-13 02:30 pm W 14.0-----29.85- 80.8- 58.6---
2024-07-13 02:15 pmWSW 14.0-----29.85- 79.3- 59.5---
2024-07-13 02:00 pmWSW 13.0-----29.85+0.00 79.5- 59.7---
2024-07-13 01:45 pmWSW 12.0-----29.85- 78.8- 59.5---
2024-07-13 01:30 pm W 15.0-----29.85- 78.6- 59.9---
2024-07-13 01:15 pm W 13.0-----29.85- 78.4- 59.2---
2024-07-13 01:00 pm W 15.0-----29.85- 77.9- 58.1---
2024-07-13 12:45 pm W 15.0-----29.85- 78.3- 57.4---
2024-07-13 12:30 pm W 12.0-----29.85- 76.3- 57.2---
2024-07-13 12:15 pm W 14.0-----29.83- 74.3- 56.5---
2024-07-13 12:00 pm W 14.0-----29.85+0.00 73.0- 56.7---